Regional Weather Roundup
Issued by NWS Sioux Falls, SD

Home | Current Version | Previous Version | Graphics & Text | Print | Product List | Glossary Off
Versions: 1 2 3 4 5 6 7 8 9 10 11 12 13 14 15 16 17 18 19 20 21 22 23 24 25 26 27 28 29 30 31 32 33 34 35 36 37 38 39 40 41 42 43 44 45 46 47 48 49 50

000
ASUS43 KFSD 211402
RWRFSD

WEATHER ROUNDUP FOR SE SOUTH DAKOTA/SW MINNESOTA/NW IOWA
NATIONAL WEATHER SERVICE SIOUX FALLS SD
900 AM CDT SAT APR 21 2018

NOTE: "FAIR" INDICATES FEW OR NO CLOUDS BELOW 12,000 FEET WITH NO
SIGNIFICANT WEATHER AND OR OBSTRUCTIONS TO VISIBILITY.


SDZ038>040-050-052>070-211500-
SOUTHEAST SOUTH DAKOTA

CITY           SKY/WX    TMP DP  RH WIND       PRES   REMARKS
BROOKINGS      CLOUDY    40  34  79 CALM      30.38R
CHAMBERLAIN    DRIZZLE   40  40 100 SE5       30.33F
HURON          CLOUDY    40  35  83 CALM      30.36R
MADISON        PTSUNNY   37  37 100 S6        30.36S
MITCHELL       CLOUDY    39  33  79 E3        30.36F
SIOUX FALLS    LGT RAIN  40  30  67 SE3       30.37R
WINNER         CLOUDY    41  36  82 S3        30.32S
YANKTON        CLOUDY    41  34  76 NE9       30.35S
$$

MNZ071-072-080-081-089-090-097-098-211500-
SOUTHWEST MINNESOTA

CITY           SKY/WX    TMP DP  RH WIND       PRES   REMARKS
FAIRMONT       CLOUDY    37  29  72 NE6       30.41R
JACKSON        CLOUDY    37  30  75 CALM      30.39S
LUVERNE        CLOUDY    37  30  75 CALM      30.39R
MARSHALL       CLOUDY    38  31  76 SE3       30.41R
MONTEVIDEO     CLOUDY    37  32  81 S5        30.41S
PIPESTONE      CLOUDY   N/A N/A N/A E3        30.37R
REDWOOD FALLS  CLOUDY    38  30  73 E3        30.41R
TRACY          CLOUDY    38  33  84 CALM      30.40R
WINDOM         CLOUDY    37  21  52 NE7       30.40R
WORTHINGTON    CLOUDY    37  30  75 CALM      30.39R
$$

IAZ001>003-012>014-020>022-031-032-NEZ013-014-SDZ071-211500-
NORTHWEST IOWA

CITY           SKY/WX    TMP DP  RH WIND       PRES   REMARKS
CHEROKEE       CLOUDY    40  32  74 CALM      30.37R
DENISON        CLOUDY    46  32  57 E7        30.34F
ESTHERVILLE    CLOUDY    35  30  82 CALM      30.39R
LE MARS        CLOUDY    41  32  70 NE7       30.35S
ORANGE CITY    CLOUDY    41  36  81 E5        30.36S
SHELDON        CLOUDY    41  34  75 E8        30.35S
SIOUX CITY     CLOUDY    44  33  65 E6        30.33S
SPENCER        CLOUDY    39  30  70 E6        30.37S
STORM LAKE     CLOUDY    37  32  81 E8        30.36R
$$

ABBREVIATIONS USED IN REMARKS
   TC - TEMPERATURE IN CELSIUS
  WCI - WIND CHILL INDEX
   HX - HEAT INDEX
  VSB - VISIBILITY





USA.gov is the U.S. government's official web portal to all federal, state and local government web resources and services.